Year,Month,Day,Hour,Minute,Value (Times are PST for insolation in W/m^2)
2008,12,24,00,00,0.00
2008,12,24,00,01,0.00
2008,12,24,00,02,0.00
2008,12,24,00,03,0.00
2008,12,24,00,04,0.00
2008,12,24,00,05,0.00
2008,12,24,00,06,0.00
2008,12,24,00,07,0.00
2008,12,24,00,08,0.00
2008,12,24,00,09,0.00
2008,12,24,00,10,0.00
2008,12,24,00,11,0.00
2008,12,24,00,12,0.00
2008,12,24,01,02,0.00
2008,12,24,01,03,0.00
2008,12,24,01,04,0.00
2008,12,24,01,05,0.00
2008,12,24,01,06,0.00
2008,12,24,01,07,0.00
2008,12,24,01,08,0.00
2008,12,24,01,09,0.00
2008,12,24,01,10,0.00
2008,12,24,01,11,0.00
2008,12,24,01,12,0.00
2008,12,24,01,13,0.00
2008,12,24,01,14,0.00
2008,12,24,01,15,0.00
2008,12,24,01,16,0.00
2008,12,24,01,17,0.00
2008,12,24,01,18,0.00
2008,12,24,01,19,0.00
2008,12,24,01,20,0.00
2008,12,24,01,21,0.00
2008,12,24,01,22,0.00
2008,12,24,01,23,0.00
2008,12,24,01,24,0.00
2008,12,24,01,25,0.00
2008,12,24,01,26,0.00
2008,12,24,01,27,0.00
2008,12,24,01,28,0.00
2008,12,24,01,29,0.00
2008,12,24,01,30,0.00
2008,12,24,01,31,0.00
2008,12,24,01,32,0.00
2008,12,24,01,33,0.00
2008,12,24,01,34,0.00
2008,12,24,01,35,0.00
2008,12,24,01,36,0.00
2008,12,24,01,37,0.00
2008,12,24,01,38,0.00
2008,12,24,01,39,0.00
2008,12,24,01,40,0.00
2008,12,24,01,41,0.00
2008,12,24,01,42,0.00
2008,12,24,01,43,0.00
2008,12,24,01,44,0.00
2008,12,24,01,45,0.00
2008,12,24,01,46,0.00
2008,12,24,01,47,0.00
2008,12,24,01,48,0.00
2008,12,24,01,49,0.00
2008,12,24,01,50,0.00
2008,12,24,01,51,0.00
2008,12,24,01,52,0.00
2008,12,24,01,53,0.00
2008,12,24,01,54,0.00
2008,12,24,01,55,0.00
2008,12,24,01,56,0.00
2008,12,24,01,57,0.00
2008,12,24,01,58,0.00
2008,12,24,01,59,0.00
2008,12,24,02,00,0.00
2008,12,24,02,01,0.00
2008,12,24,02,02,0.00
2008,12,24,02,03,0.00
2008,12,24,02,04,0.00
2008,12,24,02,05,0.00
2008,12,24,02,06,0.00
2008,12,24,02,07,0.00
2008,12,24,02,08,0.00
2008,12,24,02,09,0.00
2008,12,24,02,10,0.00
2008,12,24,02,11,0.00
2008,12,24,02,12,0.00
2008,12,24,02,13,0.00
2008,12,24,02,14,0.00
2008,12,24,02,15,0.00
2008,12,24,02,16,0.00
2008,12,24,02,17,0.00
2008,12,24,02,18,0.00
2008,12,24,02,19,0.00
2008,12,24,02,20,0.00
2008,12,24,02,21,0.00
2008,12,24,02,22,0.00
2008,12,24,02,23,0.00
2008,12,24,02,24,0.00
2008,12,24,02,25,0.00
2008,12,24,02,26,0.00
2008,12,24,02,27,0.00
2008,12,24,02,28,0.00
2008,12,24,02,29,0.00
2008,12,24,02,30,0.00
2008,12,24,02,31,0.00
2008,12,24,02,32,0.00
2008,12,24,02,33,0.00
2008,12,24,02,34,0.00
2008,12,24,02,35,0.00
2008,12,24,02,36,0.00
2008,12,24,02,37,0.00
2008,12,24,02,38,0.00
2008,12,24,02,39,0.00
2008,12,24,02,40,0.00
2008,12,24,02,41,0.00
2008,12,24,02,42,0.00
2008,12,24,02,43,0.00
2008,12,24,02,44,0.00
2008,12,24,02,45,0.00
2008,12,24,02,46,0.00
2008,12,24,02,47,0.00
2008,12,24,02,48,0.00
2008,12,24,02,49,0.00
2008,12,24,02,50,0.00
2008,12,24,02,51,0.00
2008,12,24,02,52,0.00
2008,12,24,02,53,0.00
2008,12,24,02,54,0.00
2008,12,24,02,55,0.00
2008,12,24,02,56,0.00
2008,12,24,02,57,0.00
2008,12,24,02,58,0.00
2008,12,24,02,59,0.00
2008,12,24,03,00,0.00
2008,12,24,03,01,0.00
2008,12,24,03,02,0.00
2008,12,24,03,03,0.00
2008,12,24,03,04,0.00
2008,12,24,03,05,0.00
2008,12,24,03,06,0.00
2008,12,24,03,07,0.00
2008,12,24,03,08,0.00
2008,12,24,03,09,0.00
2008,12,24,03,10,0.00
2008,12,24,03,11,0.00
2008,12,24,03,12,0.00
2008,12,24,03,13,0.00
2008,12,24,03,14,0.00
2008,12,24,03,15,0.00
2008,12,24,03,16,0.00
2008,12,24,03,17,0.00
2008,12,24,03,18,0.00
2008,12,24,03,19,0.00
2008,12,24,03,20,0.00
2008,12,24,03,21,0.00
2008,12,24,03,22,0.00
2008,12,24,03,23,0.00
2008,12,24,03,24,0.00
2008,12,24,03,25,0.00
2008,12,24,03,26,0.00
2008,12,24,03,27,0.00
2008,12,24,03,28,0.00
2008,12,24,03,29,0.00
2008,12,24,03,30,0.00
2008,12,24,03,31,0.00
2008,12,24,03,32,0.00
2008,12,24,03,33,0.00
2008,12,24,03,34,0.00
2008,12,24,03,35,0.00
2008,12,24,03,36,0.00
2008,12,24,03,37,0.00
2008,12,24,03,38,0.00
2008,12,24,03,39,0.00
2008,12,24,03,40,0.00
2008,12,24,03,41,0.00
2008,12,24,03,42,0.00
2008,12,24,03,43,0.00
2008,12,24,03,44,0.00
2008,12,24,03,45,0.00
2008,12,24,03,46,0.00
2008,12,24,03,47,0.00
2008,12,24,03,48,0.00
2008,12,24,03,49,0.00
2008,12,24,03,50,0.00
2008,12,24,03,51,0.00
2008,12,24,03,52,0.00
2008,12,24,03,53,0.00
2008,12,24,03,54,0.00
2008,12,24,03,55,0.00
2008,12,24,03,56,0.00
2008,12,24,03,57,0.00
2008,12,24,03,58,0.00
2008,12,24,03,59,0.00
2008,12,24,04,00,0.00
2008,12,24,04,01,0.00
2008,12,24,04,02,0.00
2008,12,24,04,03,0.00
2008,12,24,04,04,0.00
2008,12,24,04,05,0.00
2008,12,24,04,06,0.00
2008,12,24,04,07,0.00
2008,12,24,04,08,0.00
2008,12,24,04,09,0.00
2008,12,24,04,10,0.00
2008,12,24,04,11,0.00
2008,12,24,04,12,0.00
2008,12,24,04,13,0.00
2008,12,24,04,14,0.00
2008,12,24,04,15,0.00
2008,12,24,04,16,0.00
2008,12,24,04,17,0.00
2008,12,24,04,18,0.00
2008,12,24,04,19,0.00
2008,12,24,04,20,0.00
2008,12,24,04,21,0.00
2008,12,24,04,22,0.00
2008,12,24,04,23,0.00
2008,12,24,04,24,0.00
2008,12,24,04,25,0.00
2008,12,24,04,26,0.00
2008,12,24,04,27,0.00
2008,12,24,04,28,0.00
2008,12,24,04,29,0.00
2008,12,24,04,30,0.00
2008,12,24,04,31,0.00
2008,12,24,04,32,0.00
2008,12,24,04,33,0.00
2008,12,24,04,34,0.00
2008,12,24,04,35,0.00
2008,12,24,04,36,0.00
2008,12,24,04,37,0.00
2008,12,24,04,38,0.00
2008,12,24,04,39,0.00
2008,12,24,04,40,0.00
2008,12,24,04,41,0.00
2008,12,24,04,42,0.00
2008,12,24,04,43,0.00
2008,12,24,04,44,0.00
2008,12,24,04,45,0.00
2008,12,24,04,46,0.00
2008,12,24,04,47,0.00
2008,12,24,04,48,0.00
2008,12,24,04,49,0.00
2008,12,24,04,50,0.00
2008,12,24,04,51,0.00
2008,12,24,04,52,0.00
2008,12,24,04,53,0.00
2008,12,24,04,54,0.00
2008,12,24,04,55,0.00
2008,12,24,04,56,0.00
2008,12,24,04,57,0.00
2008,12,24,04,58,0.00
2008,12,24,04,59,0.00
2008,12,24,05,00,0.00
2008,12,24,05,01,0.00
2008,12,24,05,02,0.00
2008,12,24,05,03,0.00
2008,12,24,05,04,0.00
2008,12,24,05,05,0.00
2008,12,24,05,06,0.00
2008,12,24,05,07,0.00
2008,12,24,05,08,0.00
2008,12,24,05,09,0.00
2008,12,24,05,10,0.00
2008,12,24,05,11,0.00
2008,12,24,05,12,0.00
2008,12,24,05,13,0.00
2008,12,24,05,14,0.00
2008,12,24,05,15,0.00
2008,12,24,05,16,0.00
2008,12,24,05,17,0.00
2008,12,24,05,18,0.00
2008,12,24,05,19,0.00
2008,12,24,05,20,0.00
2008,12,24,05,21,0.00
2008,12,24,05,22,0.00
2008,12,24,05,23,0.00
2008,12,24,05,24,0.00
2008,12,24,05,25,0.00
2008,12,24,05,26,0.00
2008,12,24,05,27,0.00
2008,12,24,05,28,0.00
2008,12,24,05,29,0.00
2008,12,24,05,30,0.00
2008,12,24,05,31,0.00
2008,12,24,05,32,0.00
2008,12,24,05,33,0.00
2008,12,24,05,34,0.00
2008,12,24,05,35,0.00
2008,12,24,05,36,0.00
2008,12,24,05,37,0.00
2008,12,24,05,38,0.00
2008,12,24,05,39,0.00
2008,12,24,05,40,0.00
2008,12,24,05,41,0.00
2008,12,24,05,42,0.00
2008,12,24,05,43,0.00
2008,12,24,05,44,0.00
2008,12,24,05,45,0.00
2008,12,24,05,46,0.00
2008,12,24,05,47,0.00
2008,12,24,05,48,0.00
2008,12,24,05,49,0.00
2008,12,24,05,50,0.00
2008,12,24,05,51,0.00
2008,12,24,05,52,0.00
2008,12,24,05,53,0.00
2008,12,24,05,54,0.00
2008,12,24,05,55,0.00
2008,12,24,05,56,0.00
2008,12,24,05,57,0.00
2008,12,24,05,58,0.00
2008,12,24,05,59,0.00
2008,12,24,06,00,0.00
2008,12,24,06,01,0.00
2008,12,24,06,02,0.00
2008,12,24,06,03,0.00
2008,12,24,06,04,0.00
2008,12,24,06,05,0.00
2008,12,24,06,06,0.00
2008,12,24,06,07,0.00
2008,12,24,06,08,0.00
2008,12,24,06,09,0.00
2008,12,24,06,10,0.00
2008,12,24,06,11,0.00
2008,12,24,06,12,0.00
2008,12,24,06,13,0.00
2008,12,24,06,14,0.00
2008,12,24,06,15,0.00
2008,12,24,06,16,0.00
2008,12,24,06,17,0.00
2008,12,24,06,18,0.00
2008,12,24,06,19,0.00
2008,12,24,06,20,0.00
2008,12,24,06,21,0.00
2008,12,24,06,22,0.00
2008,12,24,06,23,0.00
2008,12,24,06,24,0.00
2008,12,24,06,25,0.00
2008,12,24,06,26,0.00
2008,12,24,06,27,0.00
2008,12,24,06,28,0.00
2008,12,24,06,29,0.00
2008,12,24,06,30,0.00
2008,12,24,06,31,0.00
2008,12,24,06,32,0.00
2008,12,24,06,33,0.00
2008,12,24,06,34,0.00
2008,12,24,06,35,0.00
2008,12,24,06,36,0.00
2008,12,24,06,37,0.00
2008,12,24,06,38,0.00
2008,12,24,06,39,0.00
2008,12,24,06,40,0.00
2008,12,24,06,41,0.00
2008,12,24,06,42,0.00
2008,12,24,06,43,0.00
2008,12,24,06,44,0.00
2008,12,24,06,45,0.00
2008,12,24,06,46,0.00
2008,12,24,06,47,0.00
2008,12,24,06,48,0.00
2008,12,24,06,49,0.00
2008,12,24,06,50,0.00
2008,12,24,06,51,0.00
2008,12,24,06,52,0.00
2008,12,24,06,53,0.00
2008,12,24,06,54,0.00
2008,12,24,06,55,0.00
2008,12,24,06,56,0.00
2008,12,24,06,57,0.00
2008,12,24,06,58,0.00
2008,12,24,06,59,0.00
2008,12,24,07,00,0.00
2008,12,24,07,01,0.00
2008,12,24,07,02,0.00
2008,12,24,07,03,0.00
2008,12,24,07,04,0.00
2008,12,24,07,05,0.00
2008,12,24,07,06,0.00
2008,12,24,07,07,0.00
2008,12,24,07,08,0.00
2008,12,24,07,09,0.00
2008,12,24,07,10,0.00
2008,12,24,07,11,0.00
2008,12,24,07,12,0.00
2008,12,24,07,13,0.00
2008,12,24,07,14,0.00
2008,12,24,07,15,0.00
2008,12,24,07,16,0.00
2008,12,24,07,17,0.00
2008,12,24,07,18,0.00
2008,12,24,07,19,0.00
2008,12,24,07,20,0.00
2008,12,24,07,21,0.00
2008,12,24,07,22,0.00
2008,12,24,07,23,0.00
2008,12,24,07,24,0.00
2008,12,24,07,25,0.00
2008,12,24,07,26,0.00
2008,12,24,07,27,0.00
2008,12,24,07,28,0.00
2008,12,24,07,29,0.00
2008,12,24,07,30,0.00
2008,12,24,07,31,0.00
2008,12,24,07,32,0.00
2008,12,24,07,33,0.00
2008,12,24,07,34,0.00
2008,12,24,07,35,0.00
2008,12,24,07,36,0.00
2008,12,24,07,37,0.00
2008,12,24,07,38,0.00
2008,12,24,07,39,0.00
2008,12,24,07,40,0.00
2008,12,24,07,41,0.00
2008,12,24,07,42,0.00
2008,12,24,07,43,0.00
2008,12,24,07,44,0.00
2008,12,24,07,45,0.00
2008,12,24,07,46,0.00
2008,12,24,07,47,0.00
2008,12,24,07,48,0.00
2008,12,24,07,49,0.00
2008,12,24,07,50,0.00
2008,12,24,07,51,0.00
2008,12,24,07,52,0.00
2008,12,24,07,53,0.00
2008,12,24,07,54,0.00
2008,12,24,07,55,0.00
2008,12,24,07,56,0.00
2008,12,24,07,57,0.00
2008,12,24,07,58,0.00
2008,12,24,07,59,0.00
2008,12,24,08,00,0.00
2008,12,24,08,01,0.00
2008,12,24,08,02,0.00
2008,12,24,08,03,0.00
2008,12,24,08,04,0.00
2008,12,24,08,05,0.00
2008,12,24,08,06,0.00
2008,12,24,08,07,0.00
2008,12,24,08,08,0.00
2008,12,24,08,09,0.00
2008,12,24,08,10,0.00
2008,12,24,08,11,0.00
2008,12,24,08,12,0.00
2008,12,24,08,13,0.00
2008,12,24,08,14,0.00
2008,12,24,08,15,0.00
2008,12,24,08,16,0.00
2008,12,24,08,17,0.00
2008,12,24,08,18,0.00
2008,12,24,08,19,0.00
2008,12,24,08,20,0.00
2008,12,24,08,21,0.00
2008,12,24,08,22,0.00
2008,12,24,08,23,0.00
2008,12,24,08,24,0.00
2008,12,24,08,25,0.00
2008,12,24,08,26,0.00
2008,12,24,08,27,0.00
2008,12,24,08,28,0.00
2008,12,24,08,29,0.00
2008,12,24,08,30,0.00
2008,12,24,08,31,0.00
2008,12,24,08,32,0.00
2008,12,24,08,33,0.00
2008,12,24,08,34,0.00
2008,12,24,08,35,0.00
2008,12,24,08,36,0.00
2008,12,24,08,37,0.00
2008,12,24,08,38,0.00
2008,12,24,08,39,0.00
2008,12,24,08,40,0.00
2008,12,24,08,41,0.00
2008,12,24,08,42,0.00
2008,12,24,08,43,0.00
2008,12,24,08,44,0.00
2008,12,24,08,45,0.00
2008,12,24,08,46,0.00
2008,12,24,08,47,0.00
2008,12,24,08,48,0.00
2008,12,24,08,49,0.00
2008,12,24,08,50,0.00
2008,12,24,08,51,0.00
2008,12,24,08,52,0.00
2008,12,24,08,53,0.00
2008,12,24,08,54,0.00
2008,12,24,08,55,0.00
2008,12,24,08,56,0.00
2008,12,24,08,57,0.00
2008,12,24,08,58,2.90
2008,12,24,08,59,5.00
2008,12,24,09,00,5.00
2008,12,24,09,01,5.00
2008,12,24,09,02,5.00
2008,12,24,09,03,5.00
2008,12,24,09,04,5.00
2008,12,24,09,05,5.00
2008,12,24,09,06,2.10
2008,12,24,09,07,0.00
2008,12,24,09,08,0.00
2008,12,24,09,09,0.00
2008,12,24,09,10,0.00
2008,12,24,09,11,0.00
2008,12,24,09,12,0.00
2008,12,24,09,13,2.90
2008,12,24,09,14,5.00
2008,12,24,09,15,5.00
2008,12,24,09,16,5.00
2008,12,24,09,17,5.00
2008,12,24,09,18,6.30
2008,12,24,09,19,7.00
2008,12,24,09,20,8.20
2008,12,24,09,21,9.00
2008,12,24,09,22,9.00
2008,12,24,09,23,9.00
2008,12,24,09,24,9.00
2008,12,24,09,25,9.00
2008,12,24,09,26,9.00
2008,12,24,09,27,9.00
2008,12,24,09,28,10.10
2008,12,24,09,29,11.00
2008,12,24,09,30,11.00
2008,12,24,09,31,11.00
2008,12,24,09,32,11.00
2008,12,24,09,33,11.00
2008,12,24,09,34,11.00
2008,12,24,09,35,11.00
2008,12,24,09,36,11.00
2008,12,24,09,37,11.00
2008,12,24,09,38,11.60
2008,12,24,09,39,12.00
2008,12,24,09,40,12.00
2008,12,24,09,41,12.00
2008,12,24,09,42,12.00
2008,12,24,09,43,11.40
2008,12,24,09,44,11.00
2008,12,24,09,45,11.00
2008,12,24,09,46,11.00
2008,12,24,09,47,11.60
2008,12,24,09,48,12.00
2008,12,24,09,49,11.40
2008,12,24,09,50,9.80
2008,12,24,09,51,9.00
2008,12,24,09,52,7.80
2008,12,24,09,53,7.00
2008,12,24,09,54,7.00
2008,12,24,09,55,7.00
2008,12,24,09,56,7.00
2008,12,24,09,57,7.00
2008,12,24,09,58,7.00
2008,12,24,09,59,8.20
2008,12,24,10,00,9.00
2008,12,24,10,01,9.00
2008,12,24,10,02,9.00
2008,12,24,10,03,7.80
2008,12,24,10,04,7.00
2008,12,24,10,05,7.00
2008,12,24,10,06,7.00
2008,12,24,10,07,7.00
2008,12,24,10,08,7.00
2008,12,24,10,09,8.20
2008,12,24,10,10,9.00
2008,12,24,10,11,10.20
2008,12,24,10,12,11.60
2008,12,24,10,13,12.00
2008,12,24,10,14,12.00
2008,12,24,10,15,12.00
2008,12,24,10,16,12.00
2008,12,24,10,17,11.40
2008,12,24,10,18,11.00
2008,12,24,10,19,11.00
2008,12,24,10,20,9.80
2008,12,24,10,21,9.00
2008,12,24,10,22,10.20
2008,12,24,10,23,11.00
2008,12,24,10,24,11.00
2008,12,24,10,25,11.00
2008,12,24,10,26,11.00
2008,12,24,10,27,11.00
2008,12,24,10,28,11.00
2008,12,24,10,29,11.00
2008,12,24,10,30,9.80
2008,12,24,10,31,10.20
2008,12,24,10,32,11.00
2008,12,24,10,33,9.80
2008,12,24,10,34,9.00
2008,12,24,10,35,9.00
2008,12,24,10,36,9.00
2008,12,24,10,37,9.00
2008,12,24,10,38,9.00
2008,12,24,10,39,9.00
2008,12,24,10,40,9.00
2008,12,24,10,41,9.00
2008,12,24,10,42,9.00
2008,12,24,10,43,10.20
2008,12,24,10,44,11.00
2008,12,24,10,45,11.00
2008,12,24,10,46,11.60
2008,12,24,10,47,12.00
2008,12,24,10,48,12.00
2008,12,24,10,49,13.20
2008,12,24,10,50,14.00
2008,12,24,10,51,12.80
2008,12,24,10,52,12.00
2008,12,24,10,53,12.00
2008,12,24,10,54,13.20
2008,12,24,10,55,14.00
2008,12,24,10,56,14.00
2008,12,24,10,57,14.00
2008,12,24,10,58,14.00
2008,12,24,10,59,12.80
2008,12,24,11,00,12.00
2008,12,24,11,01,12.00
2008,12,24,11,02,13.20
2008,12,24,11,03,14.00
2008,12,24,11,04,14.00
2008,12,24,11,05,12.80
2008,12,24,11,06,12.00
2008,12,24,11,07,12.00
2008,12,24,11,08,12.00
2008,12,24,11,09,11.40
2008,12,24,11,10,11.00
2008,12,24,11,11,11.00
2008,12,24,11,12,9.80
2008,12,24,11,13,9.00
2008,12,24,11,14,9.00
2008,12,24,11,15,9.00
2008,12,24,11,16,9.00
2008,12,24,11,17,9.00
2008,12,24,11,18,9.00
2008,12,24,11,19,9.00
2008,12,24,11,20,9.00
2008,12,24,11,21,9.00
2008,12,24,11,22,9.00
2008,12,24,11,23,9.00
2008,12,24,11,24,10.70
2008,12,24,11,25,13.20
2008,12,24,11,26,14.00
2008,12,24,11,27,15.20
2008,12,24,11,28,14.80
2008,12,24,11,29,14.00
2008,12,24,11,30,12.80
2008,12,24,11,31,11.40
2008,12,24,11,32,11.00
2008,12,24,11,33,11.00
2008,12,24,11,34,11.00
2008,12,24,11,35,9.80
2008,12,24,11,36,9.00
2008,12,24,11,37,9.00
2008,12,24,11,38,10.10
2008,12,24,11,39,11.60
2008,12,24,11,40,13.20
2008,12,24,11,41,15.20
2008,12,24,11,42,17.20
2008,12,24,11,43,18.60
2008,12,24,11,44,19.00
2008,12,24,11,45,19.00
2008,12,24,11,46,19.00
2008,12,24,11,47,19.00
2008,12,24,11,48,19.00
2008,12,24,11,49,19.00
2008,12,24,11,50,19.00
2008,12,24,11,51,19.00
2008,12,24,11,52,20.20
2008,12,24,11,53,21.00
2008,12,24,11,54,19.80
2008,12,24,11,55,18.40
2008,12,24,11,56,16.80
2008,12,24,11,57,14.80
2008,12,24,11,58,12.80
2008,12,24,11,59,12.00
2008,12,24,12,00,11.40
2008,12,24,12,01,11.00
2008,12,24,12,02,11.00
2008,12,24,12,03,11.60
2008,12,24,12,04,12.00
2008,12,24,12,05,12.00
2008,12,24,12,06,12.00
2008,12,24,12,07,12.00
2008,12,24,12,08,14.30
2008,12,24,12,09,17.20
2008,12,24,12,10,18.00
2008,12,24,12,11,19.70
2008,12,24,12,12,23.30
2008,12,24,12,13,25.00
2008,12,24,12,14,29.10
2008,12,24,12,15,30.80
2008,12,24,12,16,27.10
2008,12,24,12,17,22.70
2008,12,24,12,18,19.30
2008,12,24,12,19,15.70
2008,12,24,12,20,14.00
2008,12,24,12,21,12.80
2008,12,24,12,22,12.00
2008,12,24,12,23,11.40
2008,12,24,12,24,11.00
2008,12,24,12,25,11.00
2008,12,24,12,26,9.80
2008,12,24,12,27,9.00
2008,12,24,12,28,9.00
2008,12,24,12,29,10.20
2008,12,24,12,30,11.00
2008,12,24,12,31,11.00
2008,12,24,12,32,11.00
2008,12,24,12,33,9.80
2008,12,24,12,34,9.00
2008,12,24,12,35,9.00
2008,12,24,12,36,9.00
2008,12,24,12,37,9.00
2008,12,24,12,38,9.00
2008,12,24,12,39,9.00
2008,12,24,12,40,7.80
2008,12,24,12,41,7.00
2008,12,24,12,42,7.00
2008,12,24,12,43,7.00
2008,12,24,12,44,7.00
2008,12,24,12,45,8.20
2008,12,24,12,46,9.00
2008,12,24,12,47,7.80
2008,12,24,12,48,7.00
2008,12,24,12,49,7.00
2008,12,24,12,50,7.00
2008,12,24,12,51,7.00
2008,12,24,12,52,7.00
2008,12,24,12,53,7.00
2008,12,24,12,54,7.00
2008,12,24,12,55,7.00
2008,12,24,12,56,7.00
2008,12,24,12,57,7.00
2008,12,24,12,58,7.00
2008,12,24,12,59,7.00
2008,12,24,13,00,7.00
2008,12,24,13,01,7.00
2008,12,24,13,02,7.00
2008,12,24,13,03,7.00
2008,12,24,13,04,7.00
2008,12,24,13,05,8.10
2008,12,24,13,06,9.00
2008,12,24,13,07,9.00
2008,12,24,13,08,9.00
2008,12,24,13,09,9.00
2008,12,24,13,10,7.80
2008,12,24,13,11,7.00
2008,12,24,13,12,5.80
2008,12,24,13,13,5.00
2008,12,24,13,14,6.20
2008,12,24,13,15,7.00
2008,12,24,13,16,8.20
2008,12,24,13,17,9.00
2008,12,24,13,18,9.00
2008,12,24,13,19,9.00
2008,12,24,13,20,10.20
2008,12,24,13,21,11.00
2008,12,24,13,22,11.00
2008,12,24,13,23,11.00
2008,12,24,13,24,11.00
2008,12,24,13,25,11.00
2008,12,24,13,26,11.00
2008,12,24,13,27,9.80
2008,12,24,13,28,9.00
2008,12,24,13,29,9.00
2008,12,24,13,30,9.00
2008,12,24,13,31,9.00
2008,12,24,13,32,9.00
2008,12,24,13,33,10.20
2008,12,24,13,34,11.60
2008,12,24,13,35,14.30
2008,12,24,13,36,17.70
2008,12,24,13,37,21.30
2008,12,24,13,38,24.70
2008,12,24,13,39,26.00
2008,12,24,13,40,25.40
2008,12,24,13,41,22.70
2008,12,24,13,42,19.80
2008,12,24,13,43,17.30
2008,12,24,13,44,16.00
2008,12,24,13,45,13.70
2008,12,24,13,46,12.00
2008,12,24,13,47,12.00
2008,12,24,13,48,12.00
2008,12,24,13,49,13.20
2008,12,24,13,50,16.30
2008,12,24,13,51,18.60
2008,12,24,13,52,20.20
2008,12,24,13,53,19.80
2008,12,24,13,54,18.40
2008,12,24,13,55,16.80
2008,12,24,13,56,16.00
2008,12,24,13,57,14.80
2008,12,24,13,58,12.80
2008,12,24,13,59,11.40
2008,12,24,14,00,11.00
2008,12,24,14,01,11.00
2008,12,24,14,02,11.00
2008,12,24,14,03,11.60
2008,12,24,14,04,14.30
2008,12,24,14,05,16.00
2008,12,24,14,06,16.00
2008,12,24,14,07,17.20
2008,12,24,14,08,19.70
2008,12,24,14,09,22.20
2008,12,24,14,10,20.70
2008,12,24,14,11,18.40
2008,12,24,14,12,15.70
2008,12,24,14,13,15.20
2008,12,24,14,14,16.00
2008,12,24,14,15,16.00
2008,12,24,14,16,14.80
2008,12,24,14,17,14.00
2008,12,24,14,18,12.80
2008,12,24,14,19,12.00
2008,12,24,14,20,11.40
2008,12,24,14,21,9.80
2008,12,24,14,22,9.00
2008,12,24,14,23,9.00
2008,12,24,14,24,10.70
2008,12,24,14,25,13.20
2008,12,24,14,26,14.00
2008,12,24,14,27,14.00
2008,12,24,14,28,12.80
2008,12,24,14,29,12.00
2008,12,24,14,30,13.20
2008,12,24,14,31,14.00
2008,12,24,14,32,16.30
2008,12,24,14,33,18.00
2008,12,24,14,34,18.00
2008,12,24,14,35,18.00
2008,12,24,14,36,18.60
2008,12,24,14,37,20.20
2008,12,24,14,38,22.20
2008,12,24,14,39,23.00
2008,12,24,14,40,21.80
2008,12,24,14,41,29.10
2008,12,24,14,42,39.10
2008,12,24,14,43,33.90
2008,12,24,14,44,22.80
2008,12,24,14,45,16.10
2008,12,24,14,46,12.30
2008,12,24,14,47,11.00
2008,12,24,14,48,12.70
2008,12,24,14,49,16.80
2008,12,24,14,50,17.30
2008,12,24,14,51,14.90
2008,12,24,14,52,12.80
2008,12,24,14,53,13.20
2008,12,24,14,54,15.20
2008,12,24,14,55,14.80
2008,12,24,14,56,14.00
2008,12,24,14,57,15.20
2008,12,24,14,58,16.00
2008,12,24,14,59,13.70
2008,12,24,15,00,13.20
2008,12,24,15,01,28.50
2008,12,24,15,02,24.50
2008,12,24,15,03,14.00
2008,12,24,15,04,14.00
2008,12,24,15,05,16.90
2008,12,24,15,06,46.80
2008,12,24,15,07,57.70
2008,12,24,15,08,97.90
2008,12,24,15,09,79.90
2008,12,24,15,10,42.00
2008,12,24,15,11,28.70
2008,12,24,15,12,14.90
2008,12,24,15,13,12.00
2008,12,24,15,14,12.00
2008,12,24,15,15,10.30
2008,12,24,15,16,9.00
2008,12,24,15,17,9.00
2008,12,24,15,18,9.00
2008,12,24,15,19,9.00
2008,12,24,15,20,10.70
2008,12,24,15,21,15.50
2008,12,24,15,22,18.00
2008,12,24,15,23,22.60
2008,12,24,15,24,57.80
2008,12,24,15,25,76.90
2008,12,24,15,26,61.80
2008,12,24,15,27,53.60
2008,12,24,15,28,43.00
2008,12,24,15,29,28.10
2008,12,24,15,30,20.10
2008,12,24,15,31,30.70
2008,12,24,15,32,30.20
2008,12,24,15,33,28.20
2008,12,24,15,34,32.00
2008,12,24,15,35,49.90
2008,12,24,15,36,52.00
2008,12,24,15,37,41.70
2008,12,24,15,38,38.30
2008,12,24,15,39,27.70
2008,12,24,15,40,21.00
2008,12,24,15,41,18.10
2008,12,24,15,42,14.90
2008,12,24,15,43,12.90
2008,12,24,15,44,12.00
2008,12,24,15,45,12.00
2008,12,24,15,46,12.00
2008,12,24,15,47,13.20
2008,12,24,15,48,14.00
2008,12,24,15,49,14.00
2008,12,24,15,50,14.00
2008,12,24,15,51,14.00
2008,12,24,15,52,14.00
2008,12,24,15,53,14.00
2008,12,24,15,54,14.00
2008,12,24,15,55,14.00
2008,12,24,15,56,12.80
2008,12,24,15,57,12.00
2008,12,24,15,58,12.00
2008,12,24,15,59,12.00
2008,12,24,16,00,10.30
2008,12,24,16,01,9.00
2008,12,24,16,02,7.90
2008,12,24,16,03,7.00
2008,12,24,16,04,7.00
2008,12,24,16,05,7.00
2008,12,24,16,06,7.00
2008,12,24,16,07,5.80
2008,12,24,16,08,5.00
2008,12,24,16,09,5.00
2008,12,24,16,10,5.00
2008,12,24,16,11,5.00
2008,12,24,16,12,5.00
2008,12,24,16,13,5.00
2008,12,24,16,14,5.00
2008,12,24,16,15,2.10
2008,12,24,16,16,0.00
2008,12,24,16,17,0.00
2008,12,24,16,18,0.00
2008,12,24,16,19,0.00
2008,12,24,16,20,0.00
2008,12,24,16,21,0.00
2008,12,24,16,22,0.00
2008,12,24,16,23,0.00
2008,12,24,16,24,0.00
2008,12,24,16,25,0.00
2008,12,24,16,26,0.00
2008,12,24,16,27,0.00
2008,12,24,16,28,0.00
2008,12,24,16,29,0.00
2008,12,24,16,30,0.00
2008,12,24,16,31,0.00
2008,12,24,16,32,0.00
2008,12,24,16,33,0.00
2008,12,24,16,34,0.00
2008,12,24,16,35,0.00
2008,12,24,16,36,0.00
2008,12,24,16,37,0.00
2008,12,24,16,38,0.00
2008,12,24,16,39,0.00
2008,12,24,16,40,0.00
2008,12,24,16,41,0.00
2008,12,24,16,42,0.00
2008,12,24,16,43,0.00
2008,12,24,16,44,0.00
2008,12,24,16,45,0.00
2008,12,24,16,46,0.00
2008,12,24,16,47,0.00
2008,12,24,16,48,0.00
2008,12,24,16,49,0.00
2008,12,24,16,50,0.00
2008,12,24,16,51,0.00
2008,12,24,16,52,0.00
2008,12,24,16,53,0.00
2008,12,24,16,54,0.00
2008,12,24,16,55,0.00
2008,12,24,16,56,0.00
2008,12,24,16,57,0.00
2008,12,24,16,58,0.00
2008,12,24,16,59,0.00
2008,12,24,17,00,0.00
2008,12,24,17,01,0.00
2008,12,24,17,02,0.00
2008,12,24,17,03,0.00
2008,12,24,17,04,0.00
2008,12,24,17,05,0.00
2008,12,24,17,06,0.00
2008,12,24,17,07,0.00
2008,12,24,17,08,0.00
2008,12,24,17,09,0.00
2008,12,24,17,10,0.00
2008,12,24,17,11,0.00
2008,12,24,17,12,0.00
2008,12,24,17,13,0.00
2008,12,24,17,14,0.00
2008,12,24,17,15,0.00
2008,12,24,17,16,0.00
2008,12,24,17,17,0.00
2008,12,24,17,18,0.00
2008,12,24,17,19,0.00
2008,12,24,17,20,0.00
2008,12,24,17,21,0.00
2008,12,24,17,22,0.00
2008,12,24,17,23,0.00
2008,12,24,17,24,0.00
2008,12,24,17,25,0.00
2008,12,24,17,26,0.00
2008,12,24,17,27,0.00
2008,12,24,17,28,0.00
2008,12,24,17,29,0.00
2008,12,24,17,30,0.00
2008,12,24,17,31,0.00
2008,12,24,17,32,0.00
2008,12,24,17,33,0.00
2008,12,24,17,34,0.00
2008,12,24,17,35,0.00
2008,12,24,17,36,0.00
2008,12,24,17,37,0.00
2008,12,24,17,38,0.00
2008,12,24,17,39,0.00
2008,12,24,17,40,0.00
2008,12,24,17,41,0.00
2008,12,24,17,42,0.00
2008,12,24,17,43,0.00
2008,12,24,17,44,0.00
2008,12,24,17,45,0.00
2008,12,24,17,46,0.00
2008,12,24,17,47,0.00
2008,12,24,17,48,0.00
2008,12,24,17,49,0.00
2008,12,24,17,50,0.00
2008,12,24,17,51,0.00
2008,12,24,17,52,0.00
2008,12,24,17,53,0.00
2008,12,24,17,54,0.00
2008,12,24,17,55,0.00
2008,12,24,17,56,0.00
2008,12,24,17,57,0.00
2008,12,24,17,58,0.00
2008,12,24,17,59,0.00
2008,12,24,18,00,0.00
2008,12,24,18,01,0.00
2008,12,24,18,02,0.00
2008,12,24,18,03,0.00
2008,12,24,18,04,0.00
2008,12,24,18,05,0.00
2008,12,24,18,06,0.00
2008,12,24,18,07,0.00
2008,12,24,18,08,0.00
2008,12,24,18,09,0.00
2008,12,24,18,10,0.00
2008,12,24,18,11,0.00
2008,12,24,18,12,0.00
2008,12,24,18,13,0.00
2008,12,24,18,14,0.00
2008,12,24,18,15,0.00
2008,12,24,18,16,0.00
2008,12,24,18,17,0.00
2008,12,24,18,18,0.00
2008,12,24,18,19,0.00
2008,12,24,18,20,0.00
2008,12,24,18,21,0.00
2008,12,24,18,22,0.00
2008,12,24,18,23,0.00
2008,12,24,18,24,0.00
2008,12,24,18,25,0.00
2008,12,24,18,26,0.00
2008,12,24,18,27,0.00
2008,12,24,18,28,0.00
2008,12,24,18,29,0.00
2008,12,24,18,30,0.00
2008,12,24,18,31,0.00
2008,12,24,18,32,0.00
2008,12,24,18,33,0.00
2008,12,24,18,34,0.00
2008,12,24,18,35,0.00
2008,12,24,18,36,0.00
2008,12,24,18,37,0.00
2008,12,24,18,38,0.00
2008,12,24,18,39,0.00
2008,12,24,18,40,0.00
2008,12,24,18,41,0.00
2008,12,24,18,42,0.00